Погода в Хынгйене

Вьетнам     20°38′48″N   106°03′21″E
темп.,
°C
ветер,
м/с
пор.,
м/с
влажн.,
%
обл.,
%
осадки,
мм/ч
давл.,
гПа
погр.,
м
25 февраля, чт
чт2501:00+20ююв268863 0.0 1009432
04:00+21ююв3887100 0.1 1008748
07:00+21ю3887100 0.2 1009732
10:00+23ю4880100 0.0 1010761
13:00+27ююв576799 0.1 1007942
16:00+27юв576332 0.0 1004798
19:00+23юв478318 0.0 1005528
22:00+22юв358728 0.0 1007430
26 февраля, пт
пт2601:00+22юв358759 0.0 1007467
04:00+22юв259092 0.1 1006367
07:00+22юв248596 0.1 1008368
10:00+24юв2478100 0.1 1010556
13:00+25вюв2274100 0.1 1008623
16:00+24вюв3478100 0.0 1006514
19:00+22юв258799 0.1 1008211
22:00+22юв258498 0.0 1012207
27 февраля, сб
сб2701:00+22ююв248395 0.0 1011132
04:00+21ю128745 0.0 101031
07:00+21вюв388567 0.3 1012524
10:00+23вюв4878100 0.3 1014700
13:00+25вюв577198 0.4 1011761
16:00+25юв467196 0.3 1010843
19:00+22юв378595 0.3 1012550
22:00+22вюв388894 0.2 1014550
28 февраля, вс
вс2801:00+22юв498496 0.7 1013613
04:00+20вюв289256 0.0 1012399
07:00+21юв4109076 0.1 1013605
10:00+25ююв6107297 0.1 10151013
13:00+26ююв6106898 0.3 10121093
16:00+24ююв61072100 0.0 10101001
19:00+23ююв5107794 0.0 1012831
22:00+23ююв498299 0.0 1014838
1 марта, пн
пн101:00+22ююв4118498 0.1 1013758
04:00+22ююв4108492 0.0 1012707
07:00+22ююв498596 0.0 1014665
10:00+25ююв587199 0.0 1016952
13:00+25ююв5772100 0.1 1013842
16:00+24юв4779100 0.1 1012681
19:00+22юв378492 0.1 1013530
22:00+22юв368494 0.0 1016512